[[{"header":{"parameterUnit":"m.s-1","parameterCategory":1,"la1":30.2991,"la2":30.254,"lo1":-89.0895,"lo2":-89.0444,"dy":0.0017,"dx":0.0017,"nx":28,"ny":28,"refTime":"2026-01-05T03:00:00:Z","depth":0,"parameterNumber":2,"parameterNumberName":"U-component_of_WINDS"},"data":[0,0,0,0,0,0,0,0,0,0,0,0,0,0,0,0,0,0,0,0,0,0,0,0,0,0,0,0,0,0,0,0,0,0,0,0,0,0,0,0,0,0,0,0,0,0,0,0,0,0,0,0,0,0,0,0,0,0,-0.9286,-0.9287,0,-0.9325,-0.9325,-0.9326,-0.9359,-0.9359,-0.936,-0.936,-0.9401,-0.9402,-0.9403,0,0,0,0,0,0,0,0,0,0,0,0,0,-0.9243,-0.9243,-0.9286,-0.9287,-0.9287,-0.9325,-0.9325,-0.9326,-0.9359,-0.9359,-0.936,-0.936,-0.9401,-0.9402,-0.9403,0,0,0,0,0,0,0,0,0,0,0,0,0,-0.9269,-0.9244,-0.9286,-0.9308,-0.9311,-0.9325,-0.9325,-0.9326,-0.9359,-0.9359,-0.936,-0.936,-0.9401,-0.9402,-0.9403,-0.9399,0,0,-0.9407,-0.9407,0,0,0,0,0,0,0,0,-0.9268,-0.9271,-0.9304,-0.9307,-0.9309,-0.9338,-0.9325,-0.9351,-0.9359,-0.9341,-0.936,-0.9361,-0.938,-0.9383,-0.9389,-0.9401,-0.9403,-0.9407,-0.9407,-0.9408,-0.9408,0,0,0,0,0,0,0,-0.9266,-0.927,-0.9302,-0.9305,-0.9308,-0.9317,-0.9321,-0.933,-0.9357,-0.9342,-0.9345,-0.9349,-0.9381,-0.9388,-0.939,-0.9403,-0.9407,-0.9408,-0.9408,-0.9409,-0.9414,-0.9414,0,0,0,0,0,0,-0.9261,-0.9268,-0.93,-0.9303,-0.929,-0.9317,-0.9322,-0.9328,-0.9357,-0.9362,-0.9348,-0.935,-0.9385,-0.9389,-0.9392,-0.9388,-0.9408,-0.9409,-0.941,-0.9415,-0.9414,-0.9413,0,0,0,0,0,0,-0.9259,-0.9263,-0.9299,-0.9286,-0.9291,-0.9317,-0.9324,-0.9329,-0.9335,-0.9361,-0.9366,-0.935,-0.9386,-0.939,-0.9397,-0.939,-0.9409,-0.941,-0.9415,-0.9414,-0.9414,-0.9382,0,0,0,0,0,0,-0.9258,-0.9263,-0.9261,-0.9286,-0.9292,-0.9303,-0.9323,-0.9329,-0.9337,-0.9339,-0.9364,-0.9369,-0.9387,-0.9395,-0.9398,-0.9392,-0.9411,-0.9416,-0.9415,-0.9414,-0.9383,-0.938,-0.9377,0,0,0,0,0,-0.9256,-0.9251,-0.9261,-0.9264,-0.929,-0.9302,-0.9306,-0.9326,-0.9336,-0.9335,-0.9352,-0.9368,-0.9391,-0.9395,-0.9399,-0.9393,-0.9416,-0.9415,-0.9414,-0.9385,-0.9381,-0.9377,0,0,0,0,0,0,-0.9225,-0.9255,-0.9266,-0.9268,-0.9282,-0.9308,-0.9307,-0.9321,-0.9334,-0.9336,-0.9361,-0.9367,-0.937,-0.9383,-0.9388,-0.9391,-0.9406,-0.9405,-0.9382,-0.9378,-0.9375,-0.9372,-0.9412,0,0,0,0,0,-0.9219,-0.9226,-0.9251,-0.9251,-0.9257,-0.9281,-0.9287,-0.9301,-0.9317,-0.9324,-0.9341,-0.9357,-0.9367,-0.9374,-0.9385,-0.9386,-0.9391,-0.9384,-0.9381,-0.9378,-0.9377,-0.9377,-0.9374,-0.9409,-0.9409,-0.9409,0,0,-0.9205,-0.9222,-0.9225,-0.9245,-0.9258,-0.9264,-0.9286,-0.9292,-0.9297,-0.9325,-0.9332,-0.9345,-0.9364,-0.9368,-0.937,-0.9378,-0.9368,-0.9376,-0.9374,-0.9374,-0.9376,-0.9372,-0.9369,-0.9408,-0.9409,-0.9409,0,0,-0.9184,-0.9197,-0.9198,-0.921,-0.9229,-0.9245,-0.9245,-0.9268,-0.9278,-0.9285,-0.9306,-0.9313,-0.9331,-0.9343,-0.9352,-0.9335,-0.935,-0.9338,-0.9321,-0.9321,-0.9318,-0.9316,-0.9309,-0.9306,-0.9337,-0.9337,-0.9337,0,-0.9164,-0.9175,-0.9197,-0.9201,-0.9209,-0.9234,-0.9235,-0.9246,-0.9268,-0.9273,-0.9282,-0.9305,-0.932,-0.9326,-0.9321,-0.9328,-0.9329,-0.9335,-0.9317,-0.9315,-0.9313,-0.9306,-0.9304,-0.9336,-0.9336,-0.9336,-0.9336,0,-0.915,-0.9157,-0.9155,-0.9175,-0.9183,-0.9186,-0.9208,-0.9214,-0.9228,-0.9243,-0.925,-0.9268,-0.9283,-0.9286,-0.9301,-0.9295,-0.9299,-0.9312,-0.9327,-0.9307,-0.9302,-0.93,-0.9333,-0.9334,-0.9334,-0.9335,0,0,-0.9109,-0.9141,-0.914,-0.9148,-0.9171,-0.9177,-0.9181,-0.9195,-0.9199,-0.9214,-0.9218,-0.9232,-0.9244,-0.9254,-0.927,-0.927,-0.9255,-0.9284,-0.9284,-0.9277,-0.9249,-0.9238,-0.9234,-0.9265,-0.9265,-0.9265,-0.9247,0,-0.9091,-0.9099,-0.9118,-0.912,-0.9127,-0.9151,-0.9154,-0.9169,-0.9183,-0.9191,-0.9207,-0.9216,-0.9232,-0.9238,-0.9239,-0.9256,-0.9249,-0.9258,-0.9269,-0.9269,-0.9262,-0.9232,-0.922,-0.9202,-0.9245,-0.9244,-0.9244,0,-0.907,-0.9082,-0.9084,-0.9105,-0.9109,-0.9112,-0.9126,-0.9133,-0.915,-0.9161,-0.9171,-0.9189,-0.9195,-0.9209,-0.9218,-0.9223,-0.9229,-0.9238,-0.9238,-0.9239,-0.9255,-0.9231,-0.9197,-0.9194,-0.9241,-0.9241,-0.9242,0,-0.9039,-0.9055,-0.9059,-0.9066,-0.9091,-0.9093,-0.9104,-0.9121,-0.9128,-0.9141,-0.9146,-0.916,-0.9167,-0.9177,-0.9198,-0.9207,-0.9204,-0.9221,-0.9212,-0.9212,-0.921,-0.9209,-0.9175,-0.9215,-0.9216,-0.9216,-0.9216,0,-0.9015,-0.9015,-0.9045,-0.9047,-0.9048,-0.9071,-0.9071,-0.9085,-0.91,-0.9105,-0.9127,-0.9132,-0.9159,-0.9167,-0.9184,-0.9188,-0.9191,-0.92,-0.9204,-0.9197,-0.9196,-0.92,-0.9202,-0.9215,-0.9215,-0.9215,-0.9215,0,-0.898,-0.9,-0.9005,-0.9028,-0.9035,-0.9034,-0.9055,-0.9058,-0.9073,-0.9079,-0.9082,-0.9106,-0.9117,-0.9139,-0.9155,-0.9166,-0.9166,-0.9174,-0.916,-0.9162,-0.9152,-0.9153,-0.9119,-0.9116,-0.9159,-0.9159,-0.9158,0,-0.8963,-0.8964,-0.8987,-0.8992,-0.9001,-0.9009,-0.9016,-0.9039,-0.9045,-0.9064,-0.9065,-0.9077,-0.9087,-0.9103,-0.9122,-0.9135,-0.9143,-0.9131,-0.9145,-0.9138,-0.9142,-0.9141,-0.9141,-0.9127,-0.9126,-0.9126,-0.9126,0,-0.8931,-0.894,-0.8949,-0.8961,-0.8969,-0.898,-0.8992,-0.8995,-0.9021,-0.9027,-0.9037,-0.9045,-0.9062,-0.9073,-0.9089,-0.9101,-0.9117,-0.9121,-0.912,-0.9112,-0.9103,-0.9107,-0.915,-0.9121,-0.9122,-0.9122,-0.9122,-0.9123,-0.8903,-0.8905,-0.8921,-0.893,-0.8941,-0.8952,-0.8956,-0.8971,-0.898,-0.8994,-0.9008,-0.9017,-0.9034,-0.9056,-0.9067,-0.9075,-0.9083,-0.9081,-0.9081,-0.908,-0.9076,-0.9103,-0.9078,-0.9078,-0.9078,-0.9078,-0.9079,0,-0.8871,-0.8883,-0.8891,-0.8906,-0.8914,-0.8928,-0.8942,-0.8947,-0.8955,-0.8969,-0.8979,-0.899,-0.9001,-0.9022,-0.9035,-0.9037,-0.9044,-0.9039,-0.9039,-0.9041,-0.9069,-0.9068,-0.9032,-0.9032,-0.9032,-0.9032,-0.9032,-0.9032,-0.8855,-0.8857,-0.8869,-0.8877,-0.8889,-0.8897,-0.8904,-0.8914,-0.8925,-0.8937,-0.8946,-0.8959,-0.8976,-0.899,-0.9001,-0.9007,-0.901,-0.9002,-0.901,-0.9035,-0.9039,-0.9043,-0.9043,-0.9003,-0.9002,-0.8981,-0.8981,-0.8981]},{"header":{"parameterUnit":"m.s-1","parameterCategory":1,"la1":30.2991,"la2":30.254,"lo1":-89.0895,"lo2":-89.0444,"dy":0.0017,"dx":0.0017,"nx":28,"ny":28,"refTime":"2026-01-05T03:00:00:Z","depth":0,"parameterNumber":3,"parameterNumberName":"V-component_of_WINDS"},"data":[0,0,0,0,0,0,0,0,0,0,0,0,0,0,0,0,0,0,0,0,0,0,0,0,0,0,0,0,0,0,0,0,0,0,0,0,0,0,0,0,0,0,0,0,0,0,0,0,0,0,0,0,0,0,0,0,0,0,3.004,3.0041,0,3.0151,3.0152,3.0153,3.0176,3.0175,3.0174,3.0173,3.0287,3.0291,3.0295,0,0,0,0,0,0,0,0,0,0,0,0,0,2.985,2.9854,3.004,3.0041,3.0043,3.015,3.0152,3.0153,3.0176,3.0175,3.0174,3.0173,3.0286,3.0291,3.0295,0,0,0,0,0,0,0,0,0,0,0,0,0,2.9944,2.9855,3.004,3.0067,3.007,3.015,3.0152,3.0154,3.0176,3.0175,3.0173,3.0172,3.0285,3.029,3.0296,3.0357,0,0,3.0313,3.0316,0,0,0,0,0,0,0,0,2.9939,2.9951,3.0061,3.0065,3.0069,3.0148,3.0127,3.0222,3.0176,3.0136,3.0173,3.0172,3.0242,3.0251,3.0275,3.0362,3.0367,3.0314,3.0317,3.032,3.0321,0,0,0,0,0,0,0,2.9932,2.9946,3.0084,3.0063,3.0068,3.0074,3.0086,3.0145,3.0195,3.0139,3.0141,3.0154,3.0244,3.0269,3.0278,3.0369,3.0314,3.0319,3.0322,3.0325,3.0515,3.0516,0,0,0,0,0,0,2.9921,2.9941,3.008,3.0087,2.9999,3.0079,3.0092,3.0124,3.0194,3.0204,3.0155,3.0155,3.026,3.0271,3.0282,3.036,3.032,3.0325,3.0328,3.0513,3.0515,3.0517,0,0,0,0,0,0,2.9916,2.9933,3.0076,3.0015,3.0033,3.0083,3.0119,3.0127,3.0152,3.0206,3.0215,3.0171,3.0259,3.0274,3.0339,3.0364,3.0328,3.0333,3.0511,3.0514,3.0516,3.0515,0,0,0,0,0,0,2.9911,2.9931,2.9954,3.0015,3.0036,3.013,3.012,3.013,3.0162,3.0162,3.0224,3.0233,3.0259,3.033,3.0344,3.0371,3.0337,3.0509,3.0513,3.0515,3.0513,3.0517,3.0521,0,0,0,0,0,2.9904,2.9949,2.9955,2.9972,3.0066,3.0131,3.0144,3.0173,3.0164,3.0188,3.0223,3.0231,3.0359,3.0336,3.0353,3.0382,3.0508,3.0512,3.0515,3.0511,3.0516,3.0521,0,0,0,0,0,0,2.989,2.9957,2.9965,3.003,3.0075,3.0135,3.0166,3.0177,3.0225,3.0224,3.0259,3.0272,3.0336,3.0365,3.0339,3.0446,3.0433,3.044,3.0425,3.043,3.0433,3.0425,3.0342,0,0,0,0,0,2.9894,2.9941,2.9998,3.005,3.0072,3.0115,3.0145,3.0164,3.0211,3.023,3.027,3.0316,3.0367,3.04,3.045,3.0518,3.0533,3.0546,3.055,3.0552,3.0558,3.0599,3.0607,3.0529,3.0529,3.0529,0,0,2.9904,2.9946,2.9974,3.0048,3.0085,3.0134,3.0131,3.0182,3.0219,3.0238,3.0302,3.0333,3.0388,3.0455,3.0487,3.0482,3.0583,3.0557,3.0559,3.0564,3.0604,3.0611,3.0617,3.0531,3.0531,3.0531,0,0,2.9946,2.9983,3.0031,3.0069,3.0125,3.0153,3.0165,3.0224,3.0246,3.0311,3.0327,3.0372,3.0458,3.0497,3.0528,3.0588,3.0598,3.0603,3.0623,3.0663,3.0669,3.0674,3.0698,3.0706,3.0609,3.0609,3.0609,0,2.9951,3.0025,3.0055,3.0107,3.014,3.016,3.0211,3.0246,3.0315,3.0338,3.0331,3.0442,3.048,3.0558,3.0573,3.0596,3.0612,3.0597,3.0665,3.0671,3.0677,3.07,3.0708,3.0609,3.0609,3.0609,3.0609,0,3.0029,3.008,3.0113,3.018,3.0217,3.0268,3.0307,3.0341,3.0358,3.0388,3.0455,3.0502,3.0562,3.0582,3.0598,3.0663,3.0659,3.0658,3.0646,3.0684,3.0707,3.0715,3.061,3.061,3.061,3.061,0,0,3.0065,3.015,3.0161,3.0193,3.0257,3.0298,3.035,3.041,3.0439,3.0487,3.0533,3.0607,3.0608,3.0643,3.0664,3.0699,3.0746,3.0695,3.0696,3.0704,3.0824,3.0825,3.0834,3.0753,3.0755,3.0756,3.082,0,3.0117,3.0211,3.0241,3.032,3.0369,3.0389,3.0436,3.0481,3.0511,3.0558,3.0591,3.0643,3.0639,3.0661,3.0696,3.0733,3.0771,3.0729,3.0798,3.08,3.0785,3.0845,3.0846,3.0903,3.0828,3.083,3.0831,0,3.0189,3.0239,3.0323,3.0383,3.0405,3.0446,3.0504,3.0548,3.06,3.062,3.066,3.0679,3.0737,3.0721,3.0802,3.0773,3.0803,3.0826,3.0829,3.0837,3.0818,3.0857,3.0922,3.0931,3.0844,3.0843,3.0842,0,3.021,3.0297,3.0359,3.0386,3.0457,3.0486,3.0517,3.0568,3.0603,3.0654,3.0677,3.0734,3.0766,3.0811,3.0845,3.083,3.0924,3.091,3.0944,3.0943,3.0963,3.0961,3.1035,3.098,3.098,3.098,3.098,0,3.0265,3.0316,3.037,3.0408,3.0466,3.0501,3.0558,3.0591,3.0637,3.0683,3.0705,3.0748,3.079,3.0839,3.0867,3.0931,3.0945,3.0964,3.097,3.0962,3.096,3.0983,3.0981,3.0982,3.0982,3.0981,3.0981,0,3.0297,3.0335,3.0404,3.0467,3.0484,3.0524,3.0578,3.0617,3.0649,3.0707,3.0723,3.0773,3.0832,3.0871,3.0946,3.0965,3.1036,3.1041,3.1018,3.1022,3.1053,3.105,3.1146,3.1161,3.1094,3.1095,3.1095,0,3.033,3.037,3.0437,3.047,3.0501,3.0553,3.0589,3.0625,3.0662,3.0726,3.0758,3.0819,3.087,3.0964,3.1007,3.1066,3.1074,3.1103,3.1083,3.1074,3.1077,3.1074,3.108,3.1107,3.1107,3.1108,3.1108,0,3.0386,3.0404,3.0454,3.0512,3.0554,3.0602,3.0649,3.0675,3.072,3.076,3.0821,3.0861,3.0939,3.1,3.1063,3.1096,3.1111,3.1114,3.1125,3.1118,3.1104,3.1114,3.1029,3.1112,3.1112,3.1111,3.1111,3.1111,3.0422,3.0459,3.0512,3.0569,3.0608,3.0653,3.0693,3.073,3.0782,3.0848,3.0867,3.0931,3.0985,3.1071,3.1106,3.1158,3.1155,3.117,3.1175,3.1178,3.118,3.1095,3.117,3.117,3.117,3.117,3.117,0,3.048,3.0516,3.0567,3.0634,3.0679,3.0687,3.0741,3.0779,3.0835,3.0884,3.0934,3.1005,3.1065,3.1114,3.1176,3.1209,3.1217,3.1224,3.1223,3.1231,3.1178,3.1163,3.1216,3.1216,3.1216,3.1216,3.1216,3.1216,3.0516,3.058,3.0604,3.0689,3.0725,3.0788,3.0819,3.0861,3.09,3.0979,3.1029,3.106,3.111,3.1177,3.1233,3.1246,3.1268,3.1274,3.1289,3.1239,3.1234,3.1229,3.1215,3.1278,3.1279,3.1337,3.1338,3.1338]}]]